Regional Weather Roundup
Issued by NWS

Home | Current Version | Previous Version | Graphics & Text | Print | Product List | Glossary On
Versions: 1 2 3 4 5 6 7 8 9 10 11 12 13 14 15 16 17 18 19 20 21 22 23 24 25 26 27 28 29 30 31 32 33 34 35 36 37 38 39 40 41 42 43 44 45 46 47 48 49 50
733
ASUS43 KLOT 240704
RWRIL

ILLINOIS REGIONAL WEATHER ROUNDUP
NATIONAL WEATHER SERVICE CHICAGO/ROMEOVILLE IL
200 AM CDT WED MAY 24 2017

NOTE: "FAIR" INDICATES FEW OR NO CLOUDS BELOW 12,000 FEET WITH NO
SIGNIFICANT WEATHER AND/OR OBSTRUCTIONS TO VISIBILITY.

* THESE STATIONS ARE NOT UNDER NWS QUALITY CONTROL. THEY ALSO MAY NOT
  REPORT WEATHER SUCH AS PRECIPITATION OR FOG.

ILZ001-002-007-009-015-016-024-240800-
NORTHWEST ILLINOIS

CITY           SKY/WX    TMP DP  RH WIND       PRES   REMARKS
MOLINE         PTCLDY    50  47  89 CALM      29.65F
STERLING*      FOG       51  51 100 CALM      29.65S VSB 1/4
SAVANNA*       CLEAR     49  49 100 CALM      29.65F
$$

ILZ003-004-008-010-011-017-018-240800-
NORTH CENTRAL ILLINOIS

CITY           SKY/WX    TMP DP  RH WIND       PRES   REMARKS
ROCKFORD       FOG       49  48  97 N5        29.66F VSB 1/2
FREEPORT*      FOG       50  50  99 NE3       29.67S VSB<1/4
ROCHELLE*      MOCLDY    49  49 100 N3        29.65F FOG
DE KALB*       CLOUDY    53  53  98 NE6       29.65F FOG
PERU*          FOG       50  49  98 CALM      29.65S VSB<1/4
$$

ILZ005-006-012>014-019>023-240800-
NORTHEAST ILLINOIS

CITY           SKY/WX    TMP DP  RH WIND       PRES   REMARKS
CHICAGO-OHARE  CLOUDY    55  52  89 E7        29.64F
CHICAGO-MIDWAY DRIZZLE   57  55  93 NE6       29.63F FOG
AURORA         CLOUDY    56  55  97 NE5       29.64F FOG
LANSING*       RAIN      55  55 100 N3        29.63F
JOLIET*        RAIN      56  56  99 N3        29.63F
WAUKEGAN       LGT RAIN  50  50 100 N8        29.65F FOG
DUPAGE AIRPORT LGT RAIN  55  55 100 E5        29.64F FOG
KANKAKEE*      LGT RAIN  56  55  97 CALM      29.64S
WHEELING       LGT RAIN  53  53 100 NE8       29.65F
MORRIS*        LGT RAIN  55  54  97 CALM      29.63F
ROMEOVILLE*    RAIN      55  55 100 NE3       29.63F
NORTHERLY ISL    N/A     54  52  93 MISG        N/A
$$

LMZ740>746-240800-
SOUTHERN LAKE MICHIGAN

STATION/POSITION SKY/WX   TEMP    WIND        PRES    VSBY  WAVE
                          AIR SEA DIR/SP/G                  HT/PER
                          (F)     (DEG/KT/KT) (MB)    (MI)  (FT/S)
SOUTHERN BUOY              47 45   40/  6/  8 1004.9          0
WILMETTE HARBOR            50 53                N/A           1
HARRISON CRIB              55      10/  8/ 10   N/A
BURNHAM HARBOR             54     360/  6/  8   N/A
CALUMET HARBOR             53     360/  5/  7 1003.5F
BURNS HARBOR               53      50/  6/  7 1003.7F
MICHIGAN CITY              54      30/  6/  7   N/A
MICHIGAN CITY 6N           52 53   30/ 10/ 12   N/A           1/ 2
ST. JOSEPH                 56 56   60/  8/ 10 1003.4F         1/ 2
$$

ILZ025>027-034>036-040-047-049-050-058-095>099-240800-
WEST-CENTRAL ILLINOIS

CITY           SKY/WX    TMP DP  RH WIND       PRES   REMARKS
QUINCY         PTCLDY    51  48  89 W5        29.67F
GALESBURG*     MOCLDY    49  48  99 W3        29.65F
MACOMB*        CLOUDY    51  49  96 W5        29.68F
JACKSONVILLE*  CLEAR     52  50  93 W6        29.65F
PITTSFIELD*    CLEAR     52  50  94 W5        29.68S
$$

ILZ028>032-037-038-041>044-048-051>054-059>061-240800-
CENTRAL ILLINOIS

CITY           SKY/WX    TMP DP  RH WIND       PRES   REMARKS
PONTIAC        CLOUDY    55  55  98 NW5       29.64F
BLOOMINGTON    CLOUDY    54  54 100 N6        29.64F FOG
DECATUR        MOCLDY    56  54  93 CALM      29.63F
PEORIA         CLOUDY    54  54 100 N3        29.63F FOG
LACON*         CLOUDY    54  54 100 CALM      29.63F FOG
LINCOLN*       MOCLDY    55  55  99 CALM      29.64S
SPRINGFIELD    CLOUDY    56  54  93 NW6       29.64F
TAYLORVILLE    MOCLDY    54  54  99 W3        29.64F FOG
$$

ILZ033-039-045-046-055>057-062-063-240800-
EAST-CENTRAL ILLINOIS

CITY           SKY/WX    TMP DP  RH WIND       PRES   REMARKS
CHAMPAIGN      MOCLDY    57  55  93 N7        29.61F
RANTOUL*       LGT RAIN  58  57  98 N3        29.62F
MATTOON        CLOUDY    57  57 100 N6        29.61F
$$

ILZ079-100>102-240800-
SOUTHWEST ILLINOIS

CITY           SKY/WX    TMP DP  RH WIND       PRES   REMARKS
ALTON          CLOUDY    55  53  93 NW5       29.66F
BELLEVILLE     CLOUDY    57  55  91 NW5       29.65F
CAHOKIA*       CLOUDY    57  53  86 CALM      29.65F
SPARTA*        CLOUDY    58  55  92 NW3       29.65F
$$

ILZ064>066-069>071-074>076-080>082-084>086-088>090-092>094-240800-
SOUTH-CENTRAL ILLINOIS

CITY           SKY/WX    TMP DP  RH WIND       PRES   REMARKS
CARBONDALE     CLOUDY    58  55  90 NW5       29.63F
CAIRO*         DRIZZLE   61  56  83 NW7       29.63R
EFFINGHAM*     CLOUDY    57  57  99 W6        29.64S
MARION         CLOUDY    59  57  94 NW3       29.64F
MT. VERNON       N/A     57  55  93 CALM      29.62F
CENTRALIA*     CLOUDY    59  55  86 NW5       29.62F
SALEM*         CLOUDY    59  54  85 NW5       29.63F
$$

ILZ067-068-072-073-078-083-087-091-240800-
SOUTHEAST ILLINOIS

CITY           SKY/WX    TMP DP  RH WIND       PRES   REMARKS
LAWRENCEVILLE  CLOUDY    61  54  77 N9        29.60F
FLORA*         CLOUDY    60  57  91 NW7       29.62F
FAIRFIELD*     CLOUDY    59  58  99 CALM      29.60F
HARRISBURG*    LGT RAIN  60  57  90 NW5       29.61F
ROBINSON*      CLOUDY    59  55  87 N5        29.62F
CARMI*         CLOUDY    61  58  90 W5        29.60F
$$

ABBREVIATIONS USED IN REMARKS
   TC - TEMPERATURE IN CELSIUS
  WCI - WIND CHILL INDEX
   HX - HEAT INDEX
  VSB - VISIBILITY
$$





USA.gov is the U.S. government's official web portal to all federal, state and local government web resources and services.